Location: Unnamed
(25.2826°S, 57.6099°W)
Time: 00:11:35
(UTC-04:00)

BlueWalker 3 - Pass Details

Date: 23 January 2026
Orbit: 451 x 460 km, 53.2° (Epoch: 18 February)

Event Time Altitude Azimuth Distance (km) Brightness Sun altitude
Exits shadow 03:31:07 13° 40° (NE) 1,425 4.3 -22.4°
Maximum altitude 03:32:05 14° 58° (ENE) 1,369 4.4 -22.2°
Drops below altitude 10° 03:34:05 10° 91° (E) 1,612 5.3 -21.8°
Sets 03:37:01 0° 117° (ESE) 2,498 7.0 -21.3°
